Le nostre stazioni meteo in Italia

Pubblicità
Il mio iltempo24.it
Alghero, Italia (16520): Temperatura & dewpoint: 10.12.2017 17:00:00 - 16.12.2017 17:00:00 (CET)Alghero, Italia (16520): velocità del vento: 10.12.2017 17:00:00 - 16.12.2017 17:00:00 (CET)Alghero, Italia (16520): direzione del vento: 10.12.2017 17:00:00 - 16.12.2017 17:00:00 (CET)Alghero, Italia (16520): reduced air pressure: 10.12.2017 17:00:00 - 16.12.2017 17:00:00 (CET)Alghero, Italia (16520): visibility: 10.12.2017 17:00:00 - 16.12.2017 17:00:00 (CET)
Data & Tempo tt [°C] td [°C] ff [km/h] ff [kn] dd ppp [hPa] vv [km]
16.12.2017 17:00:00 11,0 2,0 26 14 NO - 10
16.12.2017 16:00:00 11,0 2,3 29 16 NO 1011,7 10
16.12.2017 15:00:00 11,0 3,0 31 17 ONO - 10
16.12.2017 14:00:00 12,0 2,0 29 16 NO - 10
16.12.2017 13:00:00 11,7 1,9 28 15 NO 1011,0 10
16.12.2017 12:00:00 12,0 3,0 28 15 ONO - 10
16.12.2017 11:00:00 12,0 3,0 26 14 ONO - 10
16.12.2017 10:00:00 11,4 2,2 22 12 ONO 1010,6 10
16.12.2017 09:00:00 9,0 5,0 22 12 O - 10
16.12.2017 08:00:00 11,0 5,0 13 7 ONO - 10
16.12.2017 07:00:00 11,4 4,2 21 11 ONO 1008,9 10
16.12.2017 06:00:00 11,0 4,0 16 9 ONO - 10
16.12.2017 05:00:00 12,0 4,0 26 14 NO - 10
16.12.2017 04:00:00 11,7 4,5 21 11 NO 1008,2 10
16.12.2017 03:00:00 10,0 6,0 18 10 ONO - 10
16.12.2017 02:00:00 11,0 6,0 26 14 ONO - 8
16.12.2017 01:00:00 11,8 5,2 16 9 O 1008,3 10
16.12.2017 00:00:00 11,0 5,0 18 10 ONO - 10
15.12.2017 23:00:00 11,0 5,0 21 11 ONO - 10
15.12.2017 22:00:00 11,1 5,7 16 9 ONO 1007,3 25
15.12.2017 21:00:00 11,0 6,0 21 11 ONO - 10
15.12.2017 20:00:00 11,0 7,0 24 13 ONO - 10
15.12.2017 19:00:00 10,1 7,5 8 4 O 1005,6 12
15.12.2017 18:00:00 11,0 9,0 8 4 SSO - 10
15.12.2017 17:00:00 12,0 9,0 8 4 ONO - 10
15.12.2017 16:00:00 11,5 9,9 8 4 NNO 1003,9 12
15.12.2017 15:00:00 11,0 10,0 13 7 NNO - 5
15.12.2017 14:00:00 13,0 12,0 11 6 NO - 10
15.12.2017 13:00:00 15,3 12,6 24 13 OSO 1003,1 9
15.12.2017 12:00:00 16,0 14,0 28 15 OSO - 10
15.12.2017 11:00:00 15,0 14,0 29 16 OSO - 9
15.12.2017 10:00:00 14,9 13,7 37 20 OSO 1005,4 7
15.12.2017 09:00:00 15,0 14,0 31 17 SSO - 6
15.12.2017 08:00:00 15,0 13,0 34 18 SO - 10
15.12.2017 07:00:00 15,0 13,1 31 17 SO 1007,2 10
15.12.2017 06:00:00 15,0 13,0 29 16 SO - 10
15.12.2017 05:00:00 15,0 13,0 31 17 SO - 10
15.12.2017 04:00:00 15,2 12,1 28 15 SO 1009,8 10
15.12.2017 03:00:00 15,0 13,0 22 12 SO - 10
15.12.2017 02:00:00 15,0 12,0 22 12 SO - 10
15.12.2017 01:00:00 15,0 12,0 21 11 OSO 1011,8 10
15.12.2017 00:00:00 15,0 12,0 22 12 OSO - 10
14.12.2017 23:00:00 15,0 12,0 21 11 OSO - 10
14.12.2017 22:00:00 15,1 12,1 16 9 OSO 1013,6 10
14.12.2017 21:00:00 15,0 12,0 18 10 OSO - 10
14.12.2017 20:00:00 15,0 12,0 16 9 SO - 10
14.12.2017 19:00:00 15,2 11,5 22 12 SO 1014,9 10
14.12.2017 18:00:00 15,0 11,0 18 10 OSO - 10
14.12.2017 17:00:00 15,0 11,0 16 9 OSO - 10
14.12.2017 16:00:00 15,1 10,9 21 11 OSO 1015,1 10
14.12.2017 15:00:00 16,0 11,0 22 12 OSO - 10
14.12.2017 14:00:00 15,0 11,0 16 9 SO - 10
14.12.2017 13:00:00 15,3 11,2 18 10 OSO 1017,4 10
14.12.2017 12:00:00 16,0 12,0 21 11 OSO - 10
14.12.2017 11:00:00 15,0 11,0 31 17 SO - 10
14.12.2017 10:00:00 15,3 10,2 29 16 SO 1018,8 10
14.12.2017 09:00:00 15,0 10,0 29 16 SO - 10
14.12.2017 08:00:00 14,0 9,0 28 15 SO - 10
14.12.2017 07:00:00 14,2 8,5 22 12 OSO 1018,6 10
14.12.2017 06:00:00 14,0 8,0 29 16 OSO - 10
14.12.2017 05:00:00 14,0 8,0 31 17 SO - 10
14.12.2017 04:00:00 14,6 7,7 29 16 OSO 1019,4 10
14.12.2017 03:00:00 - - - - - - -
14.12.2017 02:00:00 14,0 7,0 21 11 OSO - 10
14.12.2017 01:00:00 13,5 5,8 18 10 OSO 1020,9 10
14.12.2017 00:00:00 13,0 6,0 21 11 OSO - 10
13.12.2017 23:00:00 13,0 6,0 29 16 OSO - 10
13.12.2017 22:00:00 13,4 5,7 26 14 OSO 1022,2 10
13.12.2017 21:00:00 13,0 7,0 21 11 OSO - 10
13.12.2017 20:00:00 12,0 5,0 21 11 OSO - 10
13.12.2017 19:00:00 12,2 4,8 22 12 OSO 1022,9 40
13.12.2017 18:00:00 12,0 6,0 13 7 O - 10
13.12.2017 17:00:00 11,0 5,0 15 8 OSO - 10
13.12.2017 16:00:00 12,9 2,8 13 7 O 1023,1 10
13.12.2017 15:00:00 13,0 2,0 15 8 O - 10
13.12.2017 14:00:00 14,0 4,0 13 7 O - 10
13.12.2017 13:00:00 13,2 2,9 16 9 O 1023,4 40
13.12.2017 12:00:00 13,0 5,0 15 8 O - 10
13.12.2017 11:00:00 13,0 5,0 11 6 O - 10
13.12.2017 10:00:00 12,2 5,6 5 3 - 1023,6 10
13.12.2017 09:00:00 9,0 7,0 4 2 - - 10
13.12.2017 08:00:00 9,0 6,0 4 2 - - 10
13.12.2017 07:00:00 8,5 7,4 2 1 - 1021,8 10
13.12.2017 06:00:00 10,0 9,0 2 1 - - 10
13.12.2017 05:00:00 10,0 10,0 0 0 N - 10
13.12.2017 04:00:00 10,4 10,4 0 0 N 1020,1 10
13.12.2017 03:00:00 10,0 10,0 2 1 - - 10
13.12.2017 02:00:00 10,0 10,0 0 0 N - 10
13.12.2017 01:00:00 10,4 10,4 5 3 ESE 1019,1 10
13.12.2017 00:00:00 11,0 11,0 4 2 E - 9
12.12.2017 23:00:00 10,0 10,0 4 2 - - 9
12.12.2017 22:00:00 10,2 10,2 0 0 N 1017,9 10
12.12.2017 21:00:00 11,0 10,0 0 0 N - 10
12.12.2017 20:00:00 11,0 10,0 4 2 - - 10
12.12.2017 19:00:00 10,8 10,0 4 2 ESE 1016,7 10
12.12.2017 18:00:00 11,0 10,0 0 0 N - 10
12.12.2017 17:00:00 11,0 10,0 5 3 ESE - 10
12.12.2017 16:00:00 11,3 10,3 2 1 - 1014,4 9
12.12.2017 15:00:00 13,0 12,0 4 2 - - 10
12.12.2017 14:00:00 13,0 12,0 4 2 - - 10
12.12.2017 13:00:00 12,9 11,4 2 1 - 1013,2 10
12.12.2017 12:00:00 13,0 10,0 8 4 ONO - 10
12.12.2017 11:00:00 15,0 12,0 18 10 SO - 10
12.12.2017 10:00:00 13,4 12,0 0 0 N 1012,5 10
12.12.2017 09:00:00 13,0 11,0 4 2 S - 10
12.12.2017 08:00:00 14,0 12,0 11 6 OSO - 8
12.12.2017 07:00:00 14,2 11,9 11 6 SO 1010,0 10
12.12.2017 06:00:00 15,0 11,0 16 9 SO - 10
12.12.2017 05:00:00 15,0 11,0 18 10 SO - 10
12.12.2017 04:00:00 15,5 10,4 21 11 SO 1008,3 10
12.12.2017 03:00:00 15,0 11,0 22 12 OSO - 10
12.12.2017 02:00:00 17,0 13,0 34 18 SO - 10
12.12.2017 01:00:00 17,0 12,2 31 17 SO 1006,1 10
12.12.2017 00:00:00 16,0 13,0 26 14 SSO - 10
11.12.2017 23:00:00 17,0 12,0 41 22 S - 10
11.12.2017 22:00:00 17,8 10,8 44 24 SSO 1003,1 10
11.12.2017 21:00:00 18,0 10,0 44 24 S - 10
11.12.2017 20:00:00 18,0 10,0 48 26 S - 10
11.12.2017 19:00:00 17,6 9,4 44 24 S 1001,1 10
11.12.2017 18:00:00 17,0 11,0 41 22 S - 10
11.12.2017 17:00:00 17,0 11,0 41 22 S - 10
11.12.2017 16:00:00 16,6 12,0 41 22 S 1000,9 10
11.12.2017 15:00:00 17,0 12,0 39 21 SSO - 10
11.12.2017 14:00:00 17,0 12,0 41 22 S - 10
11.12.2017 13:00:00 16,8 12,6 42 23 S 1001,3 10
11.12.2017 12:00:00 17,0 12,0 46 25 S - 10
11.12.2017 11:00:00 17,0 11,0 44 24 S - 10
11.12.2017 10:00:00 16,8 11,5 46 25 S 1001,9 10
11.12.2017 09:00:00 17,0 11,0 42 23 S - 10
11.12.2017 08:00:00 16,0 12,0 42 23 S - 10
11.12.2017 07:00:00 15,9 12,1 42 23 S 1002,4 10
11.12.2017 06:00:00 16,0 12,0 39 21 S - 10
11.12.2017 05:00:00 16,0 12,0 41 22 S - 10
11.12.2017 04:00:00 16,1 12,2 48 26 S 1003,8 10
11.12.2017 03:00:00 16,0 13,0 41 22 S - 10
11.12.2017 02:00:00 - - - - - - -
11.12.2017 01:00:00 16,3 13,4 35 19 SO 1006,5 10
11.12.2017 00:00:00 16,0 14,0 37 20 SSO - 10
10.12.2017 23:00:00 16,0 14,0 39 21 SSO - 10
10.12.2017 22:00:00 16,2 14,0 39 21 SSO 1008,3 10
10.12.2017 21:00:00 16,0 14,0 34 18 SSO - 10
10.12.2017 20:00:00 16,0 14,0 34 18 SSO - 10
10.12.2017 19:00:00 14,9 13,8 37 20 SSO 1009,7 10
10.12.2017 18:00:00 14,0 12,0 42 23 S - 10
10.12.2017 17:00:00 13,0 12,0 46 25 S - 10

tt = Temperatura
td = dewpoint
ff = velocità del vento
dd = direzione del vento
ppp = reduced air pressure
vv = visibility

Stazioni seguenti

WeatherPro
AMSI
MeteoEarth